Home   Weather   Boston   Past weeks
Flag for USA

Past Weather in Boston, Massachusetts, USA — Yesterday and Last 2 Weeks

Now
35 °F

Partly sunny.


Feels Like: 26 °F
Forecast: 41 / 35 °F
Wind: 14 mph from North

Location: Logan International Airport

Current Time: Mar 31, 2020 at 9:34:01 am

Latest Report: Mar 31, 2020 at 8:54 am


Visibility: 10 mi

Pressure: 30.09 "Hg

Humidity: 75%

Dew Point: 28 °F

Location of BostonLocation

Past Weather in Boston — Graph

°F

Boston Temperature Yesterday

Maximum temperature yesterday: 42 °F (at 12:54 pm)
Minimum temperature yesterday: 37 °F (at 8:54 pm)
Average temperature yesterday: 40 °F

High & Low Weather Summary for the Past Weeks

 TemperatureHumidityPressure
High67 °F (Mar 20, 4:54 pm)97% (Mar 17, 10:54 am)30.75 "Hg (Mar 17, 10:54 am)
Low26 °F (Mar 22, 6:54 am)15% (Mar 27, 4:54 pm)29.65 "Hg (Mar 20, 4:54 pm)
Average41 °F71%30.18 "Hg
* Reported Mar 16 8:54 am — Mar 31 8:12 am, Boston. Weather by CustomWeather, © 2020

Note: Actual official high and low records may vary slightly from our data, if they occured in-between our weather recording intervals... More about our weather records

Boston Weather History for the Previous 24 Hours

Scroll right to see more
 ConditionsComfort  
Time TempWeatherWind HumidityBarometerVisibility
8:12 am
Tue, Mar 31
35 °FScattered clouds.12 mph78%30.09 "Hg10 mi
7:54 am34 °FPartly sunny.14 mph82%30.08 "Hg10 mi
7:24 am34 °FScattered clouds.13 mph85%30.08 "Hg10 mi
6:54 am34 °FPartly sunny.13 mph85%30.07 "Hg10 mi
6:13 am34 °FMostly cloudy.16 mph88%30.05 "Hg10 mi
5:54 am34 °FOvercast.14 mph88%30.05 "Hg10 mi
4:54 am34 °FOvercast.13 mph88%30.05 "Hg10 mi
3:54 am35 °FMostly cloudy.14 mph88%30.05 "Hg10 mi
2:54 am36 °FLight rain. Overcast.14 mph89%30.05 "Hg10 mi
1:54 am36 °FOvercast.17 mph92%30.04 "Hg10 mi
12:54 am37 °FDrizzle. Fog.15 mph89%30.03 "Hg6 mi
11:54 pm
Mon, Mar 30
37 °FDrizzle. Fog.12 mph93%30.04 "Hg6 mi
11:29 pm37 °FDrizzle. Fog.16 mph93%30.04 "Hg3 mi
10:54 pm37 °FLight rain. Fog.14 mph89%30.04 "Hg2 mi
9:54 pm37 °FLight rain. Mostly cloudy.18 mph89%30.03 "Hg8 mi
8:54 pm37 °FDrizzle. Mostly cloudy.20 mph89%30.03 "Hg10 mi
7:54 pm38 °FLight rain. Mostly cloudy.16 mph90%30.02 "Hg8 mi
6:54 pm39 °FLight rain. Fog.14 mph89%30.01 "Hg6 mi
5:54 pm39 °FDrizzle. Fog.13 mph93%29.99 "Hg6 mi
4:54 pm40 °FFog.17 mph93%29.96 "Hg4 mi
4:21 pm40 °FDrizzle. Fog.15 mph93%29.97 "Hg2 mi
4:12 pm40 °FDrizzle. Fog.18 mph93%29.97 "Hg3 mi
3:54 pm40 °FDrizzle. Fog.15 mph93%29.96 "Hg2 mi
3:24 pm40 °FLight rain. Fog.15 mph93%29.96 "Hg2 mi
2:54 pm40 °FLight rain. Fog.17 mph93%29.95 "Hg2 mi
1:54 pm41 °FLight rain. Fog.15 mph89%29.95 "Hg4 mi
12:54 pm42 °FMostly cloudy.13 mph85%29.96 "Hg10 mi
11:54 am41 °FFog.18 mph93%29.97 "Hg4 mi
11:25 am41 °FFog.17 mph93%29.99 "Hg6 mi
10:54 am41 °FFog.16 mph89%29.99 "Hg3 mi
10:31 am40 °FFog.16 mph93%30.01 "Hg3 mi
9:54 am40 °FFog.17 mph93%30.00 "Hg3 mi
Weather by CustomWeather, © 2020

See weather overview

Advertising